Overview Statistics Trail Chart Weather Telemetry Raw packets
 

This is the latest recevied weather packets stored in our database for station/object OE-11190. If no packets are shown the sender has not sent any weather packets the latest 10 day(s).

<< 7 8 9 10 11 12 13 >>
Time Temp. Humidity Pressure Rain* Wind** Luminosity Snow
1788263708 26.67° C 36% 1019.5 hPa 0 mm - 751 W/m² -
1788262880 26.67° C 37% 1019.6 hPa 0 mm - 751 W/m² -
1788262508 26.67° C 38% 1019.6 hPa 0 mm - 758 W/m² -
1788261908 25.56° C 41% 1019.7 hPa 0 mm - 766 W/m² -
1788261081 26.67° C 41% 1019.7 hPa 0 mm - 781 W/m² -
1788260708 26.11° C 40% 1019.6 hPa 0 mm - 819 W/m² -
1788260107 25.56° C 40% 1019.8 hPa 0 mm - 789 W/m² -
1788259281 25.56° C 41% 1019.7 hPa 0 mm - 789 W/m² -
1788258907 26.11° C 41% 1019.7 hPa 0 mm - 773 W/m² -
1788258308 25.56° C 41% 1019.7 hPa 0 mm - 751 W/m² -
1788257481 25.56° C 41% 1019.8 hPa 0 mm - 743 W/m² -
1788257108 25.56° C 42% 1019.9 hPa 0 mm - 728 W/m² -
1788256508 25° C 41% 1020 hPa 0 mm - 720 W/m² -
1788255681 25° C 42% 1020 hPa 0 mm - 705 W/m² -
1788255308 24.44° C 43% 1020.1 hPa 0 mm - 705 W/m² -
1788254708 25° C 44% 1020.2 hPa 0 mm - 690 W/m² -
1788253880 23.89° C 44% 1020.3 hPa 0 mm - 523 W/m² -
1788253525 23.89° C 46% 1020.3 hPa 0 mm - 561 W/m² -
1788252906 23.89° C 49% 1020.3 hPa 0 mm - 584 W/m² -
1788252081 23.89° C 50% 1020.3 hPa 0 mm - 591 W/m² -
1788251724 23.33° C 50% 1020.3 hPa 0 mm - 591 W/m² -
1788251108 23.33° C 52% 1020.2 hPa 0 mm - 569 W/m² -
1788250508 22.78° C 54% 1020.3 hPa 0 mm - 546 W/m² -
1788249908 22.78° C 55% 1020.3 hPa 0 mm - 531 W/m² -
1788249308 22.22° C 54% 1020.2 hPa 0 mm - 508 W/m² -

* Rain latest hour (hover to see other rain measurements)
** Current wind speed in m/s (hover to see current wind gust speed)